+ View the NASA Portal
+ Center for Near-Earth Object Studies
IMPORTANT:
The SSD Announcement email list is now available. Major changes are coming in the near future, including possible hostname and/or URL changes. To be notified of such changes, subscribe to this email list.
Please visit
this page
for more details.
Don't show this message again
JPL Small-Body Database Browser
Search:
[
help
]
312191 (2007 VU95)
Classification:
Main-belt Asteroid
SPK-ID:
2312191
[
Ephemeris
|
Orbit Diagram
|
Orbital Elements
|
Mission Design
|
Physical Parameters
|
Discovery Circumstances
|
Close-Approach Data
]
[ show orbit diagram ]
Orbital Elements at Epoch 2458600.5 (2019-Apr-27.0) TDB
Reference:
JPL 13
(heliocentric ecliptic J2000)
Element
Value
Uncertainty (1-sigma)
Units
e
.177168972574448
6.3912e-08
a
2.410330996898977
1.7724e-08
au
q
1.98329513061404
1.5119e-07
au
i
2.274105268104649
5.6101e-06
deg
node
275.9374451428666
0.00018853
deg
peri
194.3878238416216
0.00019063
deg
M
341.564808240887
2.7877e-05
deg
t
p
2458670.493645608145
(2019-Jul-05.99364561)
0.00010627
TDB
period
1366.826705584788
3.74
1.5076e-05
4.128e-08
d
yr
n
.2633837914704603
2.9051e-09
deg/d
Q
2.837366863183914
2.0864e-08
au
Orbit Determination Parameters
# obs. used (total)
181
data-arc span
6526 days (17.87 yr)
first obs. used
2001-02-20
last obs. used
2019-01-03
planetary ephem.
DE431
SB-pert. ephem.
SB431-N16
condition code
0
norm. resid. RMS
.65985
source
ORB
producer
Otto Matic
solution date
2019-Jul-14 09:57:47
Additional Information
Earth MOID
= 1.00031 au
Jupiter MOID
= 2.28226 au
T_jup
= 3.497
[ show covariance matrix ]
[
Ephemeris
|
Orbit Diagram
|
Orbital Elements
|
Mission Design
|
Physical Parameters
|
Discovery Circumstances
|
Close-Approach Data
]
Physical Parameter Table
Parameter
Symbol
Value
Units
Sigma
Reference
Notes
absolute magnitude
H
17.6
n/a
MPO460289
312191 (2007 VU95)
Discovered 2007-Nov-09 by BATTeRS at Bisei SG Center
Reference:
20120109/Numbers.arc
Last Updated:
2012-01-11
[ show close-approach data ]
[
Ephemeris
|
Orbit Diagram
|
Orbital Elements
|
Mission Design
|
Physical Parameters
|
Discovery Circumstances
|
Close-Approach Data
]
2019-Dec-05 17:30 UT
(server date/time)
Site Manager:
Ryan S. Park
Webmaster
:
Alan B. Chamberlin